Back to catalog

FENGYUN 1C DEB

AliveSSO
NORAD 31243·DEBRIS·🇨🇳 China

Launched May 10, 1999 from Taiyuan Satellite Launch Center

Loading…

Next Passes (next 24 hours)

TLE

FreshSource: Space-Track

Epoch: Sep 11, 2026, 12:52 UTC

1 31243U 99025BLZ 26254.53616761  .00000873  00000-0  52929-3 0  9990
2 31243  98.7267 290.8585 0066489 119.1656 241.6188 14.07763105731457

Track FENGYUN 1C DEB in real time with AllMySat

Download on the App Store